Location: Harwich
(41.6860°N, 70.0760°W)
Time: 12:02:32
(UTC-04:00)

Daily predictions for brighter satellites

Satellite Brightness Start Highest point End
(mag) Time Altitude Azimuth Time Altitude Azimuth Time Altitude Azimuth
Cosmos 1939 Rocket 3.4 20:38:00 10° SE 20:41:57 44° ENE 20:45:53 10° N
PSLV R/B 3.3 20:40:09 10° W 20:43:40 82° S 20:47:13 10° E
Cosmos 2034 Rocket 4.2 20:39:28 10° N 20:45:52 86° W 20:52:10 10° S
SPOT 5 3.5 20:42:27 10° SE 20:46:22 34° ENE 20:50:17 10° N
Cosmos 1346 Rocket 4.2 20:44:58 10° SE 20:47:55 21° E 20:50:55 10° NE
CZ-4 SHROUD 4.0 20:52:44 10° SE 20:55:40 36° ENE 20:58:37 10° N
H-2A R/B 4.1 20:55:31 10° ENE 20:56:56 11° ENE 20:58:21 10° NE
PSLV R/B 4.0 20:54:12 10° SE 20:56:59 35° ENE 20:59:53 10° N
Cosmos 2369 Rocket 2.4 20:51:44 10° NNW 20:57:21 60° ENE 21:02:45 11° SE
USA 234 4.3 20:51:49 10° E 20:57:44 38° NNE 21:03:40 10° NW
Cosmos 1666 4.5 20:57:57 10° NNW 21:01:28 32° W 21:04:57 10° SSW
COSMOS 2455 3.2 20:56:42 10° SW 21:02:41 74° WNW 21:08:44 10° NNE
ERS-1 Rocket 3.3 20:59:20 10° S 21:04:18 66° WSW 21:09:19 10° NNW
SPOT 1/Viking Rocket 4.5 21:01:16 11° SE 21:05:36 33° ENE 21:10:09 10° N
YAOGAN 6 3.7 21:09:24 14° SE 21:12:01 31° ENE 21:15:21 10° N
BREEZE-M DEB (TANK) 3.9 21:10:22 10° W 21:12:04 17° SW 21:13:39 10° S
Cosmos 1900 4.5 21:09:18 10° SSW 21:14:19 58° ESE 21:19:23 10° NE
Cosmos 1766 4.4 21:13:54 10° NNE 21:17:25 28° ENE 21:19:45 17° SE
USA 238 DEB 4.3 21:14:43 10° S 21:20:58 35° ESE 21:27:13 10° NE
USA 238 4.3 21:14:50 10° S 21:21:04 34° ESE 21:27:17 10° NE
Envisat 3.0 21:17:17 10° SSE 21:22:22 84° WSW 21:27:29 10° NNW
GEOS 3 Rocket 4.2 21:18:19 11° SSE 21:23:16 53° WSW 21:28:24 10° NW
Cosmos 1758 Rocket 4.0 21:20:06 13° SSE 21:23:44 43° E 21:27:52 10° NNE
Cosmos 407 Rocket 3.5 21:20:22 10° S 21:25:34 66° ESE 21:30:45 10° NNE
Cosmos 2263 4.2 21:27:12 10° NNW 21:32:51 82° ENE 21:37:05 18° SSE
MetOp-A 4.1 21:31:36 15° SSE 21:36:09 87° E 21:41:33 10° NNW
SL-27 R/B 3.1 21:36:55 27° SE 21:37:51 31° ESE 21:40:52 10° NE
UNK 4.2 21:32:55 10° NNE 21:38:28 83° ESE 21:44:18 10° SSW
Cosmos 1825 Rocket 3.8 21:34:49 10° SSW 21:39:15 71° W 21:43:41 10° N
Cosmos 1066 Rocket 4.4 21:36:30 10° SSW 21:42:13 79° W 21:48:05 10° N
COSMOS 2406 3.8 21:39:25 18° SSE 21:43:02 35° ESE 21:48:12 10° NE
Cosmos 1943 Rocket 2.4 21:41:28 10° NNW 21:46:58 59° ENE 21:50:21 24° SE
Cosmos 1954 Rocket 4.1 21:41:49 10° S 21:47:02 60° ESE 21:52:15 10° NNE
Lacrosse 4 Rocket 2.2 21:44:52 10° SW 21:48:49 50° WNW 21:52:50 10° NNE
Cosmos 2084 3.6 21:50:51 10° NNW 21:54:58 64° NE 21:56:59 30° SE
SeaSat 1 2.5 21:52:49 23° SSE 21:55:55 75° WSW 22:00:53 10° NNW
DELTA 2 DEB (DPAF) 4.4 21:54:23 28° SE 21:56:32 54° ENE 22:00:55 10° N
Atlas Centaur 2 3.7 21:50:18 10° WSW 21:56:36 32° S 22:00:12 23° SSE
Meteor 1-22 Rocket 4.5 21:52:03 10° NNW 21:57:41 71° W 22:02:15 17° S
H-2A R/B 4.4 21:55:23 10° SW 21:58:31 20° W 22:01:43 10° NW
Cosmos 1943 4.4 21:53:31 10° SW 21:58:56 45° WNW 22:04:24 10° NNE
ISS -0.4 21:57:39 10° WNW 22:00:05 19° NNW 22:02:31 10° NNE
CZ-4C R/B 3.5 22:00:19 33° SE 22:01:59 59° ENE 22:05:53 10° N
Landsat 7 4.0 22:02:45 30° SE 22:04:54 56° ENE 22:09:34 10° N
SL-23 DEB 4.3 22:01:51 10° WSW 22:08:17 82° NW 22:12:06 10° NE
Cosmos 1741 Rocket 4.3 22:09:31 30° SSE 22:11:43 47° ESE 22:16:49 10° NNE
CZ-4B R/B 4.1 22:08:13 10° N 22:13:16 58° WNW 22:18:23 10° SSW
Geosat 4.3 22:09:13 10° NE 22:14:02 45° ESE 22:15:45 33° SSE
CZ-4 R/B 4.0 22:09:13 10° N 22:14:15 80° WNW 22:18:13 17° SSW
Cosmos 1953 2.2 22:12:03 10° N 22:16:03 71° E 22:17:07 45° SSE
Nadezhda 4 Rocket 4.2 22:13:52 28° SSE 22:17:09 57° E 22:23:19 10° NNE
Terra 2.0 22:19:03 36° SE 22:20:43 56° ENE 22:25:24 10° N
ARGOS 3.4 22:18:01 25° S 22:21:09 66° WSW 22:26:35 10° NNW
PSLV R/B 3.5 22:17:45 10° W 22:21:15 55° SSW 22:21:16 55° SSW
Spot 4 4.3 22:19:48 33° ESE 22:21:24 46° ENE 22:25:58 10° N
Cosmos 1023 Rocket 4.4 22:18:43 22° SSW 22:22:11 80° ESE 22:27:28 10° NNE
Cosmos 2221 4.3 22:20:31 10° NNE 22:23:26 17° ENE 22:24:01 17° E
ATLAS 3B R/B 3.8 22:16:45 10° WSW 22:24:11 50° NW 22:31:26 10° NNE
Cosmos-2242 3.1 22:21:59 10° NNW 22:26:23 72° W 22:28:02 37° S
Cosmos 1850 Rocket 3.9 22:24:44 31° S 22:27:11 68° ESE 22:32:23 10° NNE
Cosmos 1842 3.8 22:25:37 26° SSW 22:27:35 55° W 22:31:26 10° N
Cosmos 1140 Rocket 3.4 22:26:31 21° SSW 22:30:02 88° WNW 22:35:20 10° NNE
Cosmos 1570 Rocket 4.0 22:26:55 10° NNW 22:32:19 89° ENE 22:34:19 40° SSE
H-2A R/B 1.9 22:33:42 41° SSE 22:35:28 85° ENE 22:40:37 10° NNW
Cosmos 1733 4.4 22:33:22 10° NNE 22:36:46 28° ENE 22:36:47 28° ENE
NOSS 3-2 (A) 3.8 22:35:29 36° SSE 22:37:01 43° ESE 22:43:08 10° NE
Lacrosse 5 4.2 22:35:21 10° NNW 22:38:56 19° NNE 22:42:32 10° ENE
Cosmos 1607 3.8 22:33:00 10° SSW 22:39:17 85° ESE 22:45:32 10° NE
SL-8 R/B 3.6 22:34:42 10° WNW 22:39:34 86° NNE 22:41:05 44° ESE
USA 234 3.2 22:37:09 33° SE 22:40:22 81° SW 22:46:58 10° NW
Cosmos 2369 Rocket 4.2 22:36:57 10° NW 22:40:49 19° W 22:44:34 10° SW
Cosmos 614 Rocket 3.9 22:48:02 38° SSW 22:50:06 89° ESE 22:55:21 10° NNE
Cosmos 2026 Rocket 4.4 22:55:03 39° SE 22:56:27 45° E 23:02:10 10° NNE
SAR-Lupe-2 4.3 22:58:16 42° WSW 22:58:23 43° W 23:01:50 10° NNW
Cosmos 1340 2.7 23:00:50 73° NE 23:00:50 73° NE 23:04:22 10° NNE
Cosmos 1544 3.2 22:58:13 10° NNW 23:01:55 72° W 23:01:55 72° W
Meteor 2-5 Rocket 3.7 23:00:28 47° SSE 23:02:08 72° E 23:07:53 10° NNE
CARTOSAT-1 4.1 23:02:00 42° SW 23:02:48 47° W 23:07:00 10° NNW
CZ-4C R/B 2.1 23:03:35 53° SSE 23:04:31 61° ESE 23:10:21 10° NE
Okean 3 Rocket 3.4 23:08:05 77° S 23:08:24 86° E 23:12:51 10° N
Cosmos 1627 Rocket 4.4 23:08:12 48° SSE 23:09:49 66° E 23:15:54 10° NNE
USA 238 DEB 4.5 23:04:47 10° SW 23:11:41 53° NW 23:18:36 10° NNE
Meteor 1-16 Rocket 4.4 23:06:03 10° N 23:11:41 63° ENE 23:13:00 49° SE
USA 238 4.5 23:04:52 10° SW 23:11:47 53° NW 23:18:41 10° NNE
Cosmos 2278 4.2 23:12:32 10° NNW 23:18:03 50° ENE 23:19:32 40° ESE
Cosmos 1470 3.1 23:15:41 10° NNW 23:19:20 58° W 23:19:20 58° W
Cosmos 1408 Rocket 4.0 23:21:14 50° ENE 23:21:14 50° ENE 23:25:17 10° NNE
COSMOS 2487 3.8 23:24:51 34° WNW 23:25:09 35° WNW 23:28:30 10° N
Cosmos 405 Rocket 4.1 23:27:35 29° NE 23:27:35 29° NE 23:29:54 10° NNE
Cosmos 1697 Rocket 4.4 23:24:10 10° N 23:28:41 24° NE 23:31:20 17° E
CENTAUR R/B 4.1 23:29:35 19° E 23:29:35 19° E 23:33:07 10° ENE
Cosmos 1943 Rocket 4.0 23:26:24 10° WNW 23:30:11 19° W 23:31:53 17° WSW
ALOS 2 3.7 23:32:11 34° ENE 23:32:18 34° ENE 23:36:16 10° N
Cosmos 1818 3.5 23:28:05 10° NNW 23:33:36 77° ENE 23:34:29 61° ESE
Cosmos 2082 Rocket 3.1 23:34:49 33° E 23:34:49 33° E 23:39:30 10° NE
Cosmos 1833 Rocket 4.0 23:35:46 26° E 23:35:46 26° E 23:39:47 10° NE
CZ-4B R/B 3.2 23:37:33 28° NE 23:37:33 28° NE 23:40:12 10° N
ISS -0.1 23:35:30 10° NNW 23:37:27 15° N 23:39:26 10° NE
NOSS 3-3 (A) 4.4 23:30:16 10° NW 23:37:45 85° WSW 23:40:26 46° SSE
NOSS 3-3 (C) 4.4 23:30:22 10° NW 23:37:52 86° SW 23:40:33 46° SSE
Cosmos 1417 Rocket 4.3 23:35:42 10° N 23:41:52 90° S 23:43:09 59° S
H-2A R/B 3.6 23:39:10 10° NNE 23:41:37 32° NE 23:41:37 32° NE
Atlas Centaur 2 4.5 23:39:53 10° WSW 23:42:50 18° SW 23:42:50 18° SW
NOSS 3-2 (C) 3.5 23:43:08 38° SW 23:45:42 81° NW 23:52:25 10° NE
Cosmos 1553 Rocket 4.0 23:40:07 10° N 23:46:30 75° E 23:47:54 56° SSE
Cosmos 1707 4.0 23:50:19 34° WNW 23:50:19 34° WNW 23:53:54 10° N
Cosmos 1743 Rocket 4.2 23:51:30 47° ENE 23:51:30 47° ENE 23:55:13 10° NNE
Cosmos 1378 4.0 23:56:29 48° N 23:56:29 48° N 23:59:18 10° N
Cosmos 1076 Rocket 3.8 23:56:04 62° NW 23:56:04 62° NW 23:59:58 10° N
